Location: Unspecified
(43.4354°N, 0.0000°E)
Time: 19:02:27
(UTC+00:00)

Transit 2A - Pass Details

Date: 19 June 2019
Orbit: 594 x 964 km, 66.7° (Epoch: 21 July)

Event Time Altitude Azimuth Distance (km) Brightness Sun altitude
Rises 07:25:05 0° 334° (NNW) 3,539 9.2 30.8°
Reaches altitude 10° 07:29:25 10° 3° (N) 2,515 8.8 31.5°
Maximum altitude 07:31:50 13° 28° (NNE) 2,285 9.0 32.0°
Drops below altitude 10° 07:34:09 10° 52° (NE) 2,408 9.5 32.4°
Sets 07:38:05 0° 82° (E) 3,238 10.3 33.1°
